{"data":{"norad_id":66357,"intl_designator":"2025-254K","name":"STARLINK-35817","alt_names":[],"object_type":"PAYLOAD","status":"ACTIVE","operator":null,"country":"US","launch_date":"2025-11-06","launch_site_code":"AFWTR","launch_vehicle":null,"mission":null,"orbit_class":"UNKNOWN","rcs_meters":null,"size_class":null,"mass_kg":null,"dimensions":null,"purposes":["comms"],"wikipedia_slug":null,"has_3d_model":false,"image_url":null,"decayed_at":null,"tle_current":{"epoch":"2026-05-24T15:29:29.700960Z","epoch_age_seconds":109717,"freshness":"FRESH","line1":"1 66357U 25254K   26144.64548265  .00010834  00000+0  37738-3 0  9998","line2":"2 66357  53.1608 239.7311 0000838  88.5876 271.5221 15.30197676 30603","mean_motion":15.30197676,"eccentricity":8.38e-5,"inclination_deg":53.1608,"raan_deg":239.7311,"arg_perigee_deg":88.5876,"mean_anomaly_deg":271.5221,"bstar":0.00037738,"rev_number":3060,"period_min":94.105488629693,"perigee_km":474.64769698829,"apogee_km":475.79631995811,"semimajor_km":6853.3590084732,"source":"CELESTRAK","updated_at":"2026-05-25T13:38:21.175748Z"}}}